Inquirer Daily News

Weather

Get conditions and forecasts for any City, State, ZIP code or Country:  
Northeast Philadelphia, PA
on Saturday, December 22, 2012

Saturday
Previous Day Next Day
Daily Summary
 ActualAverage (KTTN)Record (KTTN)
Temperature
Mean Temperature °F 33°F  
Max Temperature 41°F 41°F 68°F (2013)
Min Temperature 35°F 26°F 5°F (1989)
Degree Days
Heating Degree Days 27 32  
Month to date heating degree days 625  
Since 1 July heating degree days 1601  
Cooling Degree Days 0 0  
Month to date cooling degree days 0  
Year to date cooling degree days 965  
Moisture
Dew Point 23°F   
Average Humidity 56    
Maximum Humidity 82    
Minimum Humidity 43    
Precipitation
Precipitation 0.00 in 0.12 in 1.80 in (1983)
Month to date precipitation 2.86  
Year to date precipitation 45.60  
Wind
Wind Speed 18 mph   
Max Wind Speed 31 mph   
Max Gust Speed 44 mph   
Visibility 10 miles   
Events Snow   

Key: T is trace of precipitation, MM is missing value
Source: NWS Daily Summary
Time(EST)TemperatureDew PointHumidity Pressure Visibility Wind DirectionWind SpeedGust SpeedPrecipitationEvents Conditions
12:32 AM 35.6°F 30.2°F 81% 29.44 in 8.0 miles West 17.3 mph 25.3 mph 0.00 in Snow Light Snow
12:54 AM 35.1°F 30.0°F 82% 29.44 in 9.0 miles West 19.6 mph 23.0 mph 0.00 in   Overcast
1:54 AM 35.1°F 28.9°F 78% 29.45 in 10.0 miles West 17.3 mph 20.7 mph 0.00 in   Overcast
2:54 AM 35.1°F 28.9°F 78% 29.47 in 9.0 miles West 20.7 mph 27.6 mph 0.00 in Snow Light Snow
3:54 AM 36.0°F 27.0°F 70% 29.47 in 10.0 miles WSW 12.7 mph 21.9 mph N/A   Mostly Cloudy
4:54 AM 37.9°F 25.0°F 60% 29.50 in 10.0 miles WNW 16.1 mph 28.8 mph N/A   Overcast
5:54 AM 37.9°F 24.1°F 57% 29.54 in 10.0 miles WNW 19.6 mph 32.2 mph N/A   Mostly Cloudy
6:54 AM 37.9°F 21.9°F 53% 29.56 in 10.0 miles WNW 13.8 mph 23.0 mph N/A   Scattered Clouds
7:54 AM 37.9°F 21.0°F 51% 29.60 in 10.0 miles WNW 18.4 mph 28.8 mph N/A   Overcast
8:54 AM 39.0°F 21.0°F 49% 29.63 in 10.0 miles WNW 16.1 mph 27.6 mph N/A   Overcast
9:54 AM 39.0°F 21.9°F 50% 29.67 in 10.0 miles WNW 19.6 mph 29.9 mph N/A   Overcast
10:54 AM 39.9°F 21.9°F 49% 29.67 in 10.0 miles WNW 21.9 mph 31.1 mph N/A   Overcast
11:54 AM 39.9°F 21.9°F 49% 29.68 in 10.0 miles WNW 25.3 mph 38.0 mph N/A   Overcast
12:54 PM 41.0°F 21.9°F 47% 29.69 in 10.0 miles West 27.6 mph 34.5 mph N/A   Overcast
1:54 PM 41.0°F 21.9°F 47% 29.71 in 10.0 miles WNW 19.6 mph 34.5 mph N/A   Overcast
2:54 PM 41.0°F 19.9°F 43% 29.74 in 10.0 miles West 19.6 mph 35.7 mph N/A   Overcast
3:54 PM 39.9°F 19.9°F 45% 29.77 in 10.0 miles WNW 31.1 mph 43.7 mph N/A   Overcast
4:54 PM 37.9°F 19.0°F 47% 29.81 in 10.0 miles WNW 17.3 mph 33.4 mph N/A   Partly Cloudy
5:54 PM 37.0°F 19.9°F 50% 29.85 in 10.0 miles WNW 18.4 mph 29.9 mph N/A   Mostly Cloudy
6:54 PM 37.0°F 19.9°F 50% 29.86 in 10.0 miles WNW 16.1 mph 32.2 mph N/A   Clear
7:54 PM 36.0°F 19.9°F 52% 29.88 in 10.0 miles West 13.8 mph 25.3 mph N/A   Clear
8:54 PM 36.0°F 21.0°F 55% 29.89 in 10.0 miles WNW 13.8 mph 25.3 mph N/A   Clear
9:54 PM 36.0°F 21.0°F 55% 29.91 in 10.0 miles WNW 16.1 mph 26.5 mph N/A   Clear
10:54 PM 36.0°F 21.0°F 55% 29.92 in 10.0 miles WNW 17.3 mph 23.0 mph N/A   Overcast
11:54 PM 35.1°F 21.0°F 57% 29.94 in 10.0 miles West 11.5 mph - N/A   Overcast
Astronomy
Sunrise:07:19 AM (EST) Moon Rise:12:54 PM (EST)
Sunset:04:38 PM (EST) Moon Set:02:02 AM (EST)
Moon Phase
Dec. 22 Dec. 28 Jan. 04 Jan. 11 Jan. 18

Copyright © 2014 The Weather Underground, Inc.